Location: Luxembourg
(49.6117°N, 6.1300°E)
Time: 21:36:07
(UTC+02:00)

ISS - Visible Passes

Search period start: 17 July 2018 00:00
Search period end: 27 July 2018 00:00
Orbit: 402 x 408 km, 51.6° (Epoch: 18 July)

Date Brightness Start Highest point End Pass type
(mag) Time Alt. Az. Time Alt. Az. Time Alt. Az.
17 Jul -4.0 01:41:11 82° SSW 01:41:17 84° SSE 01:44:36 10° ENE visible
17 Jul -3.2 03:14:39 10° W 03:17:55 58° N 03:21:12 10° E visible
17 Jul -3.9 04:51:15 10° WNW 04:54:33 80° SSW 04:57:51 10° ESE visible
18 Jul -3.1 00:50:11 39° E 00:50:11 39° E 00:52:29 10° ENE visible
18 Jul -3.3 02:22:46 12° W 02:25:46 60° N 02:29:02 10° ENE visible
18 Jul -3.7 03:59:09 10° WNW 04:02:27 77° NNE 04:05:45 10° ESE visible
18 Jul -2.9 23:58:10 30° ESE 23:58:10 30° ESE 00:00:18 10° E visible
19 Jul -3.6 01:30:34 12° W 01:33:36 69° N 01:36:54 10° ENE visible
19 Jul -3.4 03:07:01 10° WNW 03:10:19 64° N 03:13:35 10° E visible
19 Jul -3.6 04:43:35 10° WNW 04:46:47 47° SSW 04:49:58 10° SE visible
19 Jul -2.8 23:02:29 10° SSW 23:05:14 25° SE 23:08:00 10° E visible
20 Jul -3.9 00:38:10 10° WSW 00:41:28 87° NNW 00:44:47 10° ENE visible
20 Jul -3.2 02:14:52 10° WNW 02:18:08 58° N 02:21:24 10° E visible
20 Jul -3.9 03:51:26 10° WNW 03:54:43 71° SSW 03:58:00 10° ESE visible
20 Jul -2.2 22:11:15 10° S 22:13:19 16° SE 22:15:24 10° E visible
20 Jul -4.0 23:46:05 10° WSW 23:49:21 68° SSE 23:52:38 10° ENE visible
21 Jul -3.3 01:22:40 10° W 01:25:56 58° N 01:29:11 10° ENE visible
21 Jul -3.9 02:59:17 10° WNW 03:02:35 85° NNE 03:05:54 10° ESE visible
21 Jul -2.8 04:36:01 10° W 04:38:51 26° SW 04:41:39 10° SSE visible
21 Jul -3.6 22:54:08 10° SW 22:57:16 45° SSE 23:00:27 10° ENE visible
22 Jul -3.4 00:30:27 10° W 00:33:44 65° N 00:37:01 10° ENE visible
22 Jul -3.5 02:07:08 10° WNW 02:10:25 68° N 02:13:42 10° E visible
22 Jul -3.5 03:43:43 10° W 03:46:50 40° SSW 03:49:57 10° SE visible
22 Jul -3.8 23:38:15 10° WSW 23:41:32 79° NNW 23:44:51 10° ENE visible
23 Jul -3.3 01:14:57 10° WNW 01:18:13 60° N 01:20:44 16° E visible
23 Jul -2.5 02:51:29 10° WNW 02:53:14 28° W 02:53:14 28° W visible
23 Jul -3.9 22:46:05 10° WSW 22:49:22 78° SSE 22:52:40 10° ENE visible
24 Jul -3.2 00:22:44 10° W 00:25:59 58° N 00:29:01 11° E visible
24 Jul -3.0 01:59:19 10° WNW 02:01:36 42° WNW 02:01:36 42° WNW visible
24 Jul -3.3 23:30:28 10° W 23:33:44 62° N 23:37:00 10° ENE visible
25 Jul -3.7 01:07:08 10° WNW 01:10:25 73° NNE 01:10:36 70° NE visible
25 Jul -3.6 22:38:13 10° W 22:41:30 73° NNW 22:44:48 10° ENE visible
26 Jul -3.4 00:14:55 10° WNW 00:18:12 62° N 00:19:48 26° E visible
26 Jul -1.6 01:51:28 10° WNW 01:52:25 17° W 01:52:25 17° W visible
26 Jul -3.2 23:22:40 10° W 23:25:55 58° N 23:29:05 11° E visible
